Location: Al Mulaqqa?ah
(24.1833°N, 32.8833°E)
Time: 20:54:02
(UTC+00:00)

ASTRO E2 - Pass Details

Date: 26 September 2021
Orbit: 506 x 512 km, 31.4° (Epoch: 28 October)

Event Time Altitude Azimuth Distance (km) Brightness Sun altitude
Rises 16:00:57 0° 260° (W) 2,606 8.4 -5.5°
Reaches altitude 10° 16:03:13 10° 265° (W) 1,722 7.2 -6.0°
Maximum altitude 16:07:07 54° 343° (NNW) 623 3.2 -6.9°
Drops below altitude 10° 16:11:00 10° 61° (ENE) 1,722 4.8 -7.8°
Enters shadow 16:11:37 - 63° (ENE) 1,959 5.1 -7.9°
